STARLINK-32324, 61863

Orbit data source: Space-Track

STARLINK-32324, 61863 is a payload satellite owned by SpaceX/Seattle (US) in LEO that was launched on Thu, 07 Nov 2024 UTC via an FALCON 9 launch vehicle from the Air Force Eastern Test Range (AFETR). Payload-class satellites include a variety of spacecraft equipped with specific instruments for various scientific and technological missions. These include communications satellites like Starlink; space stations such as the ISS; scientific satellites like the Hubble; Earth observation satellites from companies like Planet Labs, Umbra, and HawkEye 360; GPS; miniature CubeSats for education and research; and military/defense satellites.

Loading next visibility...
Identifier
61863, 2024-202U
Orbit
LEO
Country
Flag of USUS
Related business
Manufacturer
SpaceX/Seattle
Mission
Operational Commercial Communications
Bus & Motor
STARLINK V2M, Unknown motor
Mass
730 kg wet, ~700 kg dry
Launch date (UTC)
2024-11-07 (1 year ago)
Launch vehicle
FALCON 9
Launch site
Air Force Eastern Test Range (AFETR)
Object type
Payload
Rocket body
Debris
Shape & HBR
Box + 2 Pan, 17.7 m
Radar Cross Section
33.884 m², Large (>1 m²)

Expand to show TLE details & history
Last TLE update: 20 hours ago

TLE from 20 hours ago
0 STARLINK-32324
1 61863U 24202U   26124.71615364  .00001388  00000-0  59958-4 0  9992
2 61863  43.0009 281.7984 0001397 280.0618  80.0076 15.27568774 83897
Epoch: 2026-05-04T17:11Z
TLE epoch observation values (Epoch: 2026-05-04T17:11:15.674Z)
Latitude
-0.00002°
Longitude
161.38171°
Altitude
482.692 km
Speed
7.626 km/s
True Right ascension
18h 47m 11s
True Declination
0° 00' 00"
Sunlit
Object was in full shadow at epoch
Visualization orbit readout
Latitude
Unknown
Longitude
Unknown
Altitude
Unknown
Speed
Unknown
Apparent Right ascension
Unknown
Apparent Declination
Unknown
Sunlit
N/A
Visualization observer readout
Local Sidereal Time
20:49:10
Azimuth
Unknown
Elevation
Unknown
Doppler factor
Unknown
Orbital elements
Apogee altitude
485.987 km
Perigee altitude
484.069 km
Semi-major axis
6,863.165 km
Eccentricity
0.00014
Inclination
43.0009°
RAAN
281.7984°
Arg. of periapsis
280.0618°
True anomaly
80.02337°
Mean anomaly
80.0076°
Eccentric anomaly
80.01548°
Mean motion
3.8173 °/min
Orbital period
94.31 mins
BSTAR
0.000059958
Loading maneuver chart data...
Computing Atmospheric mass density...
Loading historical data...
Loading historical data...
Loading historical data...
Loading historical data...
Loading historical data...
Loading historical data...
Loading historical data...

Documentation

Showing up to 5 results
|